Location: ROBOsky.com Wild Flower Ridge Observatory
(43.9736°N, 79.9739°W)
Time: 09:40:43
(UTC-04:00)

USA 129 - Visible Passes

Search period start: 28 September 2016 00:00
Search period end: 08 October 2016 00:00
Orbit: 241 x 674 km, 97.5° (Epoch: 24 April)

Date Brightness Start Highest point End Pass type
(mag) Time Alt. Az. Time Alt. Az. Time Alt. Az.
28 Sep 2.6 06:30:05 10° SSW 06:31:38 21° W 06:33:05 10° NW visible
29 Sep 4.6 05:39:07 10° ESE 05:40:23 16° ENE 05:41:34 10° NNE visible
30 Sep 0.9 06:13:09 10° S 06:14:55 62° WSW 06:15:58 18° NNW visible
02 Oct 3.5 05:56:13 10° SE 05:57:03 21° ESE 05:57:03 21° ESE visible
03 Oct 3.2 06:30:34 10° SSW 06:30:57 14° SSW 06:30:57 14° SSW visible
